K3BAY-1 Weather Reports


Display with metric or nautical units.
time (UTC)temp
F
wind
direction
speed
MPH
gust
MPH
rain 1hr
in
rain 24hr
in
rain mn
in
humidity
%
barometer
mb
20260510132526 62 104 2.0 2.0 0.00 0.00 0.00 85 1010.1
20260510132023 63 105 2.0 2.0 0.00 0.00 0.00 82 1010.1
20260510131521 62 120 1.0 2.0 0.00 0.00 0.00 83 1009.7
20260510131018 61 114 2.0 2.0 0.00 0.00 0.00 84 1009.7
20260510130514 61 99 2.0 2.0 0.00 0.00 0.00 84 1010.1
20260510130012 61 121 1.0 1.0 0.00 0.00 0.00 85 1009.7
20260510125508 61 99 0.0 0.0 0.00 0.00 0.00 86 1009.7
20260510125004 61 96 0.0 0.0 0.00 0.00 0.00 85 1009.7
20260510124501 61 95 0.0 0.0 0.00 0.00 0.00 84 1009.4
20260510123958 61 108 0.0 0.0 0.00 0.00 0.00 83 1009.4
20260510123453 61 94 0.0 1.0 0.00 0.00 0.00 84 1009.4
20260510122949 60 88 0.0 0.0 0.00 0.00 0.00 87 1009.1
20260510122445 59 99 1.0 2.0 0.00 0.00 0.00 88 1009.1
20260510121941 59 98 0.0 0.0 0.00 0.00 0.00 89 1009.1
20260510121439 58 108 2.0 2.0 0.00 0.00 0.00 89 1009.1
20260510120936 58 92 0.0 0.0 0.00 0.00 0.00 91 1009.1
20260510120433 58 96 0.0 2.0 0.00 0.00 0.00 93 1009.1
20260510115929 57 102 1.0 2.0 0.00 0.00 0.00 95 1009.1
20260510115426 57 89 0.0 0.0 0.00 0.00 0.00 96 1009.1
20260510114922 57 90 0.0 0.0 0.00 0.00 0.00 97 1008.7
20260510114419 56 90 0.0 0.0 0.00 0.00 0.00 97 1008.7
20260510113914 57 87 0.0 0.0 0.00 0.00 0.00 97 1008.7
20260510113410 56 83 0.0 0.0 0.00 0.00 0.00 98 1008.7
20260510112908 55 82 0.0 0.0 0.00 0.00 0.00 98 1008.7
20260510112405 55 77 0.0 0.0 0.00 0.00 0.00 98 1008.4
20260510111901 54 77 0.0 0.0 0.00 0.00 0.00 98 1008.4
20260510111357 54 81 0.0 0.0 0.00 0.00 0.00 98 1008.4
20260510110852 54 83 0.0 0.0 0.00 0.00 0.00 98 1008.4
20260510110349 54 76 0.0 0.0 0.00 0.00 0.00 98 1008.4
20260510105845 54 81 0.0 0.0 0.00 0.00 0.00 97 1008.4
20260510105345 53 76 0.0 0.0 0.00 0.00 0.00 97 1008.4
20260510104841 53 80 0.0 0.0 0.00 0.00 0.00 97 1008.4
20260510104339 53 81 0.0 0.0 0.00 0.00 0.00 97 1008.4
20260510103835 53 81 0.0 0.0 0.00 0.00 0.00 97 1008.4
20260510103332 53 81 0.0 0.0 0.00 0.00 0.00 97 1008.4
20260510102827 53 79 0.0 0.0 0.00 0.00 0.00 96 1008.4
20260510102323 53 79 0.0 0.0 0.00 0.00 0.00 96 1008.7
20260510101821 53 76 0.0 0.0 0.00 0.00 0.00 96 1008.1
20260510101319 54 81 0.0 0.0 0.00 0.00 0.00 96 1008.4
20260510100814 54 81 0.0 0.0 0.00 0.00 0.00 95 1008.4
20260510100313 55 80 0.0 0.0 0.00 0.00 0.00 95 1008.4
20260510095808 55 85 0.0 0.0 0.00 0.00 0.00 95 1008.7
20260510095305 56 110 0.0 0.0 0.00 0.00 0.00 95 1008.4
20260510094803 56 92 0.0 3.0 0.00 0.00 0.00 96 1008.1
20260510094258 56 104 2.0 3.0 0.00 0.00 0.00 96 1008.4
20260510093754 56 88 0.0 3.0 0.00 0.00 0.00 96 1008.4
20260510093251 56 96 2.0 3.0 0.00 0.00 0.00 97 1008.4
20260510092747 56 103 0.0 3.0 0.00 0.00 0.00 97 1008.4
20260510092243 56 109 2.0 4.0 0.00 0.00 0.00 98 1008.4
20260510091739 56 108 3.0 4.0 0.00 0.00 0.00 99 1008.4
20260510091237 56 122 7.0 8.0 0.00 0.00 0.00 99 1008.1
20260510090732 54 118 0.0 0.0 0.00 0.00 0.00 99 1008.4
20260510090230 54 80 0.0 0.0 0.00 0.00 0.00 99 1008.4
20260510085725 54 81 0.0 0.0 0.00 0.00 0.00 99 1008.4
20260510085220 54 75 0.0 0.0 0.00 0.00 0.00 99 1008.4
20260510084716 54 81 0.0 0.0 0.00 0.00 0.00 99 1008.4
20260510084213 54 76 0.0 0.0 0.00 0.00 0.00 99 1008.4
20260510083710 54 81 0.0 0.0 0.00 0.00 0.00 99 1008.4
20260510083207 54 78 0.0 0.0 0.00 0.00 0.00 99 1008.4
20260510082702 53 80 0.0 0.0 0.00 0.00 0.00 99 1008.4
20260510082159 53 69 0.0 0.0 0.00 0.00 0.00 99 1008.4
20260510081653 53 80 0.0 0.0 0.00 0.00 0.00 99 1008.4
20260510081149 53 60 0.0 0.0 0.00 0.00 0.00 99 1008.4
20260510080649 53 74 0.0 0.0 0.00 0.00 0.00 99 1008.4
20260510080146 53 68 0.0 0.0 0.00 0.00 0.00 99 1008.1
20260510075643 53 79 0.0 0.0 0.00 0.00 0.00 99 1008.4
20260510075140 52 81 0.0 0.0 0.00 0.00 0.00 99 1008.4
20260510074637 53 77 0.0 0.0 0.00 0.00 0.00 99 1008.4
20260510074132 53 79 0.0 0.0 0.00 0.00 0.00 99 1008.4
20260510073629 53 80 0.0 0.0 0.00 0.00 0.00 98 1008.4
20260510073126 53 80 0.0 0.0 0.00 0.00 0.00 98 1008.4
20260510072622 53 78 0.0 0.0 0.00 0.00 0.00 98 1008.7
20260510072119 53 82 0.0 0.0 0.00 0.00 0.00 98 1008.4
20260510071614 53 78 0.0 0.0 0.00 0.00 0.00 98 1008.4
20260510071112 53 78 0.0 0.0 0.00 0.00 0.00 98 1008.4
20260510070609 53 79 0.0 0.0 0.00 0.00 0.00 98 1008.4
20260510070107 53 77 0.0 0.0 0.00 0.00 0.00 98 1008.4
20260510065557 53 79 0.0 0.0 0.00 0.00 0.00 98 1008.7
20260510065053 54 69 0.0 0.0 0.00 0.00 0.00 98 1008.7
20260510064549 54 78 0.0 0.0 0.00 0.00 0.00 98 1008.7
20260510064046 54 80 0.0 0.0 0.00 0.00 0.00 97 1008.4
20260510063543 54 81 0.0 0.0 0.00 0.00 0.00 97 1008.7
20260510063040 54 71 0.0 0.0 0.00 0.00 0.00 97 1008.7
20260510062536 54 81 0.0 0.0 0.00 0.00 0.00 97 1008.7
20260510062031 54 81 0.0 0.0 0.00 0.00 0.00 97 1008.7
20260510061528 55 85 0.0 0.0 0.00 0.00 0.00 97 1008.7
20260510061025 55 81 0.0 0.0 0.00 0.00 0.00 97 1009.1
20260510060521 55 79 0.0 0.0 0.00 0.00 0.00 96 1008.7
20260510060017 55 83 0.0 0.0 0.00 0.00 0.00 96 1009.1
20260510055514 55 80 0.0 0.0 0.00 0.00 0.00 96 1008.7
20260510055012 55 77 0.0 0.0 0.00 0.00 0.00 96 1008.7
20260510054508 55 80 0.0 0.0 0.00 0.00 0.00 96 1008.7
20260510054003 55 84 0.0 0.0 0.00 0.00 0.00 96 1009.1
20260510053457 55 79 0.0 0.0 0.00 0.00 0.00 96 1009.1
20260510052954 55 81 0.0 0.0 0.00 0.00 0.00 96 1009.1
20260510052450 55 83 0.0 0.0 0.00 0.00 0.00 95 1009.1
20260510051946 56 82 0.0 0.0 0.00 0.00 0.00 95 1009.1
20260510051442 56 82 0.0 0.0 0.00 0.00 0.00 95 1009.1
20260510050939 56 83 0.0 0.0 0.00 0.00 0.00 95 1009.1
20260510050436 56 82 0.0 0.0 0.00 0.00 0.00 95 1009.1
20260510045933 56 82 0.0 0.0 0.00 0.00 0.00 95 1009.1
20260510045431 56 82 0.0 0.0 0.00 0.00 0.00 95 1009.1
20260510044927 56 82 0.0 0.0 0.00 0.00 0.00 95 1009.1
20260510044424 56 82 0.0 0.0 0.00 0.00 0.00 94 1009.1
20260510043921 56 82 0.0 0.0 0.00 0.00 0.00 94 1009.1
20260510043417 56 81 0.0 0.0 0.00 0.00 0.00 94 1009.1
20260510042915 56 82 0.0 0.0 0.00 0.00 0.00 94 1009.1
20260510042411 56 81 0.0 0.0 0.00 0.00 0.00 94 1009.1
20260510041906 57 83 0.0 0.0 0.00 0.00 0.00 94 1009.4
20260510041404 57 82 0.0 0.0 0.00 0.00 0.00 94 1009.1
20260510040901 57 82 0.0 0.0 0.00 0.00 0.00 94 1009.1
20260510040358 57 82 0.0 0.0 0.00 0.00 0.00 93 1009.4
20260510035854 57 82 0.0 0.0 0.00 0.00 0.00 93 1009.4
20260510035350 57 83 0.0 0.0 0.00 0.00 0.00 93 1009.4
20260510034845 57 82 0.0 0.0 0.00 0.00 0.00 93 1009.1
20260510034343 57 81 0.0 0.0 0.00 0.00 0.00 92 1009.4
20260510033839 57 82 0.0 0.0 0.00 0.00 0.00 92 1009.1
20260510033336 57 82 0.0 0.0 0.00 0.00 0.00 92 1009.4
20260510032833 57 82 0.0 0.0 0.00 0.00 0.00 91 1009.4
20260510032330 57 80 0.0 0.0 0.00 0.00 0.00 91 1009.4
20260510031825 58 81 0.0 0.0 0.00 0.00 0.00 91 1009.4
20260510031321 58 82 0.0 0.0 0.00 0.00 0.00 90 1009.4
20260510030815 58 81 0.0 0.0 0.00 0.00 0.00 89 1009.4
20260510030312 59 81 0.0 0.0 0.00 0.00 0.00 89 1009.1
20260510025809 59 78 0.0 0.0 0.00 0.00 0.00 89 1009.4
20260510025307 59 82 0.0 0.0 0.00 0.00 0.00 89 1009.4
20260510024803 59 85 0.0 0.0 0.00 0.00 0.00 88 1009.4
20260510024300 59 85 0.0 0.0 0.00 0.00 0.00 88 1009.4
20260510023756 60 78 0.0 0.0 0.00 0.00 0.00 88 1009.4
20260510023253 60 80 0.0 0.0 0.00 0.00 0.00 87 1009.4
20260510022750 60 79 0.0 0.0 0.00 0.00 0.00 87 1009.4
20260510022250 60 98 0.0 0.0 0.00 0.00 0.00 87 1009.4
20260510021749 60 90 0.0 0.0 0.00 0.00 0.00 86 1009.4
20260510021247 60 77 0.0 0.0 0.00 0.00 0.00 86 1009.4
20260510020742 61 83 0.0 0.0 0.00 0.00 0.00 86 1009.7
20260510020237 61 90 0.0 0.0 0.00 0.00 0.00 85 1009.4
20260510015733 61 93 0.0 0.0 0.00 0.00 0.00 85 1009.7
20260510015230 61 83 0.0 1.0 0.00 0.00 0.00 85 1009.4
20260510014725 61 98 0.0 3.0 0.00 0.00 0.00 84 1009.7
20260510014222 61 86 0.0 0.0 0.00 0.00 0.00 84 1009.4
20260510013718 62 87 2.0 2.0 0.00 0.00 0.00 84 1009.4
20260510013214 61 98 0.0 1.0 0.00 0.00 0.00 84 1009.7
20260510012708 61 92 0.0 1.0 0.00 0.00 0.00 86 1009.7
20260510012203 62 85 0.0 1.0 0.00 0.00 0.00 88 1009.7
20260510011658 62 87 0.0 0.0 0.00 0.00 0.00 88 1009.7
20260510011154 62 144 0.0 0.0 0.00 0.00 0.00 88 1009.4
20260510010650 62 130 1.0 2.0 0.00 0.00 0.00 88 1009.7
20260510010148 62 85 0.0 0.0 0.00 0.00 0.00 88 1009.7
20260510005644 62 85 1.0 1.0 0.00 0.00 0.00 87 1009.7
20260510005141 62 89 0.0 2.0 0.00 0.00 0.00 87 1009.7
20260510004639 63 167 1.0 3.0 0.00 0.00 0.00 87 1009.7
20260510004137 63 87 0.0 0.0 0.00 0.00 0.00 87 1009.7
20260510003634 63 109 0.0 1.0 0.00 0.00 0.00 86 1009.7
20260510003129 63 122 0.0 0.0 0.00 0.00 0.00 84 1009.7
20260510002629 63 88 0.0 0.0 0.00 0.00 0.00 83 1010.1
20260510002127 64 109 0.0 0.0 0.00 0.00 0.00 82 1010.1
20260510001623 64 92 0.0 0.0 0.00 0.00 0.00 82 1009.7
20260510001122 64 83 0.0 0.0 0.00 0.00 0.00 82 1009.7
20260510000622 63 87 0.0 0.0 0.00 0.00 0.00 82 1009.7
20260510000120 63 85 0.0 3.0 0.00 0.00 0.00 83 1009.7
20260509235616 63 86 0.0 0.0 0.00 0.00 0.00 83 1009.7
20260509235113 64 85 0.0 0.0 0.00 0.00 0.00 83 1009.7
20260509234609 64 91 0.0 1.0 0.00 0.00 0.00 82 1009.7
20260509234107 64 85 0.0 2.0 0.00 0.00 0.00 81 1009.7
20260509233604 65 108 0.0 0.0 0.00 0.00 0.00 80 1009.7
20260509233101 66 86 0.0 0.0 0.00 0.00 0.00 78 1009.7
20260509232557 67 103 0.0 0.0 0.00 0.00 0.00 77 1009.7
20260509232055 67 85 0.0 0.0 0.00 0.00 0.00 75 1009.7
20260509231551 69 83 0.0 0.0 0.00 0.00 0.00 71 1010.1
20260509231049 69 83 0.0 0.0 0.00 0.00 0.00 70 1009.7
20260509230545 70 83 0.0 0.0 0.00 0.00 0.00 68 1010.1
20260509230043 69 83 0.0 0.0 0.00 0.00 0.00 69 1009.7
20260509225538 69 71 0.0 0.0 0.00 0.00 0.00 70 1010.1
20260509225034 69 78 0.0 1.0 0.00 0.00 0.00 70 1009.7
20260509224529 69 83 0.0 0.0 0.00 0.00 0.00 72 1009.7
20260509224026 68 82 0.0 0.0 0.00 0.00 0.00 73 1009.7
20260509223523 68 117 0.0 0.0 0.00 0.00 0.00 73 1009.7
20260509223021 68 138 0.0 0.0 0.00 0.00 0.00 74 1010.1
20260509222517 67 152 0.0 3.0 0.00 0.00 0.00 75 1009.7
20260509222012 68 143 2.0 3.0 0.00 0.00 0.00 73 1009.7
20260509221509 68 135 0.0 0.0 0.00 0.00 0.00 71 1009.7
20260509221005 68 121 0.0 1.0 0.00 0.00 0.00 71 1009.7
20260509220501 69 124 0.0 0.0 0.00 0.00 0.00 70 1009.7
20260509215957 68 78 0.0 1.0 0.00 0.00 0.00 72 1009.7
20260509215452 68 123 0.0 1.0 0.00 0.00 0.00 72 1009.7
20260509214950 67 164 0.0 3.0 0.00 0.00 0.00 73 1009.7
20260509214447 67 85 1.0 3.0 0.00 0.00 0.00 75 1010.1
20260509213944 67 117 0.0 0.0 0.00 0.00 0.00 75 1009.7
20260509213440 67 163 0.0 0.0 0.00 0.00 0.00 74 1009.7
20260509212937 67 170 0.0 0.0 0.00 0.00 0.00 73 1009.7
20260509212434 68 165 0.0 0.0 0.00 0.00 0.00 74 1009.7
20260509211930 68 164 0.0 0.0 0.00 0.00 0.00 71 1009.7
20260509211426 68 168 0.0 2.0 0.00 0.00 0.00 70 1009.7
20260509210923 67 124 0.0 1.0 0.00 0.00 0.00 73 1009.7
20260509210420 68 152 2.0 2.0 0.00 0.00 0.00 70 1009.7
20260509205915 67 123 0.0 0.0 0.00 0.00 0.00 71 1009.7
20260509205415 67 145 2.0 2.0 0.00 0.00 0.00 71 1009.7
20260509204912 67 176 2.0 3.0 0.00 0.00 0.00 71 1009.7
20260509204408 68 146 1.0 3.0 0.00 0.00 0.00 69 1010.1
20260509203905 67 154 2.0 3.0 0.00 0.00 0.00 71 1010.1
20260509203401 67 117 1.0 3.0 0.00 0.00 0.00 72 1009.7
20260509202858 67 169 2.0 3.0 0.00 0.00 0.00 72 1010.1
20260509202354 66 158 2.0 3.0 0.00 0.00 0.00 74 1010.1
20260509201849 66 122 2.0 3.0 0.00 0.00 0.00 75 1010.1
20260509201345 67 163 2.0 2.0 0.00 0.00 0.00 74 1010.1
20260509200842 66 146 2.0 3.0 0.00 0.00 0.00 74 1010.1
20260509200337 67 154 2.0 3.0 0.00 0.00 0.00 74 1010.1
20260509195834 66 156 2.0 3.0 0.00 0.00 0.00 74 1010.4
20260509195334 65 94 1.0 2.0 0.00 0.00 0.00 77 1010.1
20260509194833 66 164 2.0 3.0 0.00 0.00 0.00 75 1010.1
20260509194330 66 164 2.0 3.0 0.00 0.00 0.00 77 1010.1
20260509193826 65 144 2.0 3.0 0.00 0.00 0.00 77 1010.1
20260509193321 66 164 2.0 3.0 0.00 0.00 0.00 79 1010.1
20260509192817 66 152 0.0 2.0 0.00 0.00 0.00 80 1010.1
20260509192314 66 98 1.0 2.0 0.00 0.00 0.00 80 1010.1
20260509191809 66 329 0.0 1.0 0.00 0.00 0.00 81 1010.1
20260509191305 65 83 0.0 0.0 0.00 0.00 0.00 85 1010.1
20260509190801 64 82 0.0 0.0 0.00 0.00 0.00 85 1010.1
20260509190258 64 83 0.0 0.0 0.00 0.00 0.00 83 1010.4
20260509185755 64 84 0.0 0.0 0.00 0.00 0.00 82 1010.4
20260509185251 64 82 0.0 0.0 0.00 0.00 0.00 80 1010.1
20260509184749 65 74 0.0 0.0 0.00 0.00 0.00 78 1010.4
20260509184247 65 84 0.0 0.0 0.00 0.00 0.00 78 1010.1
20260509183743 65 85 0.0 0.0 0.00 0.00 0.00 78 1010.4
20260509183238 65 161 1.0 2.0 0.00 0.00 0.00 76 1010.4
20260509182734 65 147 1.0 2.0 0.00 0.00 0.00 75 1010.4
20260509182231 64 132 1.0 2.0 0.00 0.00 0.00 76 1010.4
20260509181729 64 143 0.0 0.0 0.00 0.00 0.00 79 1010.4
20260509181226 64 140 0.0 0.0 0.00 0.00 0.00 80 1010.4
20260509180723 64 103 0.0 0.0 0.00 0.00 0.00 82 1010.4
20260509180219 64 94 0.0 0.0 0.00 0.00 0.00 82 1010.4
20260509175716 64 116 0.0 0.0 0.00 0.00 0.00 80 1010.4
20260509175212 64 116 0.0 0.0 0.00 0.00 0.00 80 1010.8
20260509174708 64 125 0.0 0.0 0.00 0.00 0.00 82 1010.4
20260509174203 64 114 0.0 0.0 0.00 0.00 0.00 82 1010.4
20260509173700 64 99 0.0 0.0 0.00 0.00 0.00 79 1010.4
20260509173155 64 160 0.0 0.0 0.00 0.00 0.00 78 1010.4
20260509172652 64 120 0.0 0.0 0.00 0.00 0.00 77 1010.4
20260509172148 63 142 0.0 0.0 0.00 0.00 0.00 77 1010.8
20260509171643 64 149 0.0 0.0 0.00 0.00 0.00 77 1010.8
20260509171140 64 94 0.0 0.0 0.00 0.00 0.00 77 1010.8
20260509170637 64 117 0.0 0.0 0.00 0.00 0.00 76 1010.8
20260509170133 64 134 1.0 2.0 0.00 0.00 0.00 76 1010.8
20260509165631 64 137 2.0 2.0 0.00 0.00 0.00 77 1010.8
20260509165127 64 134 1.0 2.0 0.00 0.00 0.00 77 1010.8
20260509164623 63 164 2.0 2.0 0.00 0.00 0.00 78 1010.8
20260509164119 63 152 2.0 2.0 0.00 0.00 0.00 79 1010.8
20260509163617 63 129 2.0 3.0 0.00 0.00 0.00 79 1010.4
20260509163112 63 157 2.0 3.0 0.00 0.00 0.00 79 1010.8
20260509162610 63 161 2.0 3.0 0.00 0.00 0.00 80 1010.4
20260509162106 63 140 2.0 2.0 0.00 0.00 0.00 80 1010.8
20260509161603 63 171 2.0 3.0 0.00 0.00 0.00 79 1010.4
20260509161102 64 178 2.0 3.0 0.00 0.00 0.00 76 1010.4
20260509160559 64 151 3.0 3.0 0.00 0.00 0.00 73 1010.4
20260509160054 64 156 3.0 4.0 0.00 0.00 0.00 74 1010.4
20260509155551 65 152 2.0 3.0 0.00 0.00 0.00 74 1010.4
20260509155047 64 137 2.0 3.0 0.00 0.00 0.00 74 1010.4
20260509154543 66 156 2.0 4.0 0.00 0.00 0.00 72 1010.4
20260509154041 65 171 2.0 3.0 0.00 0.00 0.00 71 1010.4
20260509153538 66 156 2.0 3.0 0.00 0.00 0.00 72 1010.1
20260509153035 66 107 3.0 4.0 0.00 0.00 0.00 69 1010.4
20260509152530 67 132 3.0 6.0 0.00 0.00 0.00 69 1010.4
20260509152028 68 122 0.0 1.0 0.00 0.00 0.00 65 1010.4
20260509151524 68 98 2.0 2.0 0.00 0.00 0.00 66 1010.1
20260509151022 68 85 0.0 0.0 0.00 0.00 0.00 63 1010.4
20260509150519 68 76 0.0 0.0 0.00 0.00 0.00 64 1010.1
20260509150018 67 74 0.0 0.0 0.00 0.00 0.00 66 1010.1
20260509145513 66 80 0.0 0.0 0.00 0.00 0.00 68 1010.1
20260509145008 66 87 0.0 0.0 0.00 0.00 0.00 68 1010.4
20260509144505 66 75 0.0 0.0 0.00 0.00 0.00 68 1010.1
20260509144002 65 78 0.0 0.0 0.00 0.00 0.00 68 1009.7
20260509143459 66 81 0.0 1.0 0.00 0.00 0.00 68 1009.7
20260509142956 66 76 0.0 1.0 0.00 0.00 0.00 67 1010.1
20260509142452 66 82 0.0 0.0 0.00 0.00 0.00 68 1009.7
20260509141948 66 82 0.0 0.0 0.00 0.00 0.00 68 1009.7
20260509141444 66 82 0.0 0.0 0.00 0.00 0.00 68 1009.7
20260509140942 65 103 0.0 0.0 0.00 0.00 0.00 68 1009.7
20260509140437 65 81 0.0 0.0 0.00 0.00 0.00 70 1009.7
20260509135936 64 81 2.0 3.0 0.00 0.00 0.00 69 1009.4
20260509135433 64 120 0.0 3.0 0.00 0.00 0.00 70 1009.4
20260509134931 64 58 0.0 0.0 0.00 0.00 0.00 71 1009.4
20260509134428 64 60 0.0 0.0 0.00 0.00 0.00 71 1009.4
20260509133925 64 83 0.0 0.0 0.00 0.00 0.00 70 1009.1
20260509133421 64 80 0.0 2.0 0.00 0.00 0.00 70 1009.4
20260509132920 64 106 0.0 2.0 0.00 0.00 0.00 69 1009.4